Weather History for KIPL - May, 2013

Change the Weather History Date:

Wednesday, May 15, 2013

  Actual Average Record
Temperature  
Mean Temperature 88 °F -  
Max Temperature 102 °F 93 °F 106 °F (1997)
Min Temperature 73 °F 62 °F 47 °F (1951)
Cooling Degree Days 22    
Growing Degree Days 38 (Base 50)    
Moisture  
Dew Point 34 °F    
Average Humidity 17    
Maximum Humidity 25    
Minimum Humidity 7    
Precipitation  
Precipitation 0.00 in - - ()
Sea Level Pressure  
Sea Level Pressure 29.80 in    
Wind  
Wind Speed 12 mph (SW)    
Max Wind Speed 20 mph    
Max Gust Speed 29 mph    
Visibility 10 miles    
Events      
Averages and records for this station are not official NWS values.
T = Trace of Precipitation, MM = Missing Value Source: NWS Daily Summary

Daily Weather History Graph

Daily Weather History Graph

Search for Another Location

Airport or City:

Trip Planner

Search our weather history database for the weather conditions in past years. The results will help you decide how hot, cold, wet, or windy it might be!

Date:

Astronomy

May. 15, 2013 Rise Set
Actual Time 5:43 AM PDT 7:34 PM PDT
Civil Twilight 5:15 AM PDT 8:01 PM PDT
Nautical Twilight 4:43 AM PDT 8:34 PM PDT
Astronomical Twilight 4:08 AM PDT 9:09 PM PDT
Moon 10:19 AM PDT (5/15) No Moon Set
Length of Visible Light 14h 46m
Length of Day
13h 51m
Waxing Crescent, 28% of the Moon is Illuminated
May 15
Waxing Crescent
May 17
First Quarter
May 24
Full
May 31
Last Quarter
Jun 8
New

Hourly Weather History & Observations

Time (PDT) Temp. Dew Point Humidity Pressure Visibility Wind Dir Wind Speed Gust Speed Precip Events Conditions
12:53 AM 75.0 °F 28.0 °F 18% 29.82 in 10.0 mi WNW 11.5 mph - N/A   Clear
1:53 AM 75.9 °F 26.1 °F 16% 29.81 in 10.0 mi West 11.5 mph - N/A   Clear
2:53 AM 78.1 °F 25.0 °F 14% 29.81 in 10.0 mi West 16.1 mph - N/A   Clear
3:53 AM 75.9 °F 26.1 °F 16% 29.82 in 10.0 mi West 12.7 mph - N/A   Clear
4:53 AM 75.0 °F 27.0 °F 17% 29.83 in 10.0 mi West 15.0 mph - N/A   Clear
5:53 AM 73.0 °F 27.0 °F 18% 29.84 in 10.0 mi WSW 10.4 mph - N/A   Clear
6:53 AM 73.0 °F 33.1 °F 23% 29.86 in 10.0 mi WSW 4.6 mph - N/A   Clear
7:53 AM 79.0 °F 28.9 °F 16% 29.88 in 10.0 mi SSW 5.8 mph - N/A   Clear
8:53 AM 82.0 °F 35.1 °F 18% 29.88 in 10.0 mi SSE 10.4 mph - N/A   Clear
9:53 AM 84.9 °F 41.0 °F 21% 29.88 in 10.0 mi SE 9.2 mph - N/A   Clear
10:53 AM 89.1 °F 39.0 °F 17% 29.87 in 10.0 mi ESE 9.2 mph - N/A   Clear
11:53 AM 93.0 °F 37.9 °F 15% 29.85 in 10.0 mi South 6.9 mph - N/A   Clear
12:53 PM 96.1 °F 27.0 °F 9% 29.83 in 10.0 mi South 8.1 mph - N/A   Clear
1:53 PM 100.0 °F 26.1 °F 7% 29.80 in 10.0 mi South 11.5 mph 16.1 mph N/A   Clear
2:53 PM 102.0 °F 28.9 °F 8% 29.77 in 10.0 mi SW 10.4 mph - N/A   Clear
3:53 PM 100.9 °F 35.1 °F 10% 29.74 in 10.0 mi WSW 18.4 mph - N/A   Clear
4:53 PM 98.1 °F 39.0 °F 13% 29.74 in 10.0 mi WSW 19.6 mph 28.8 mph N/A   Clear
5:53 PM 95.0 °F 42.1 °F 16% 29.73 in 10.0 mi WSW 18.4 mph 25.3 mph N/A   Clear
6:53 PM 91.0 °F 39.9 °F 17% 29.73 in 10.0 mi WSW 15.0 mph - N/A   Clear
7:53 PM 86.0 °F 39.0 °F 19% 29.74 in 10.0 mi WSW 16.1 mph - N/A   Clear
8:53 PM 82.9 °F 37.0 °F 19% 29.76 in 10.0 mi WSW 16.1 mph - N/A   Clear
9:53 PM 81.0 °F 39.9 °F 23% 29.78 in 10.0 mi WSW 11.5 mph - N/A   Clear
10:53 PM 80.1 °F 41.0 °F 25% 29.77 in 10.0 mi WSW 12.7 mph - N/A   Clear
11:53 PM 79.0 °F 39.9 °F 25% 29.77 in 10.0 mi WSW 15.0 mph - N/A   Clear